DELTA 1 DEB, 21458

Orbit data source: Space-Track

DELTA 1 DEB, 21458 is space debris in SSO originally from a launch on Thu, 12 Jun 1975 UTC launched from the Air Force Western Test Range (AFWTR). Debris objects in space refer to the collection of defunct objects orbiting the Earth. Examples of debris include non-operational satellites, rocket bodies, and fragments generated from explosions, collisions, or faulty payload assembly.

Loading next visibility...
Identifier
21458, 1975-052ES
Orbit
SSO
Country
Flag of USUS
Related business
Manufacturer
Unknown
Mission
Spacecraft
Bus & Motor
Unknown
Mass
Unknown
Launch date (UTC)
1975-06-12 (51 years ago)
Launch vehicle
Unknown
Launch site
Air Force Western Test Range (AFWTR)
Object type
Payload
Rocket body
Debris
Shape & HBR
Unknown shape, 0.1 m
Radar Cross Section
Medium (>0.1 m² and <1 m²)

Expand to show TLE details & history
Last TLE update: 2 days ago

TLE from 2 days ago
0 DELTA 1 DEB
1 21458U 75052ES  26171.04670321  .00000057  00000-0  37251-3 0  9992
2 21458  99.7708  11.5373 0562448 329.6954 184.8216 12.44553364593924
Epoch: 2026-06-20T01:07Z
TLE epoch observation values (Epoch: 2026-06-20T01:07:15.157Z)
Latitude
25.61099°
Longitude
-88.82964°
Altitude
1,931.291 km
Speed
6.732 km/s
True Right ascension
13h 05m 00s
True Declination
25° 29' 46"
Sunlit
Object was in daylight at epoch
Visualization orbit readout
Latitude
Unknown
Longitude
Unknown
Altitude
Unknown
Speed
Unknown
Apparent Right ascension
Unknown
Apparent Declination
Unknown
Sunlit
N/A
Visualization observer readout
Local Sidereal Time
23:18:44
Azimuth
Unknown
Elevation
Unknown
Doppler factor
Unknown
Orbital elements
Apogee altitude
1,927.044 km
Perigee altitude
1,042.546 km
Semi-major axis
7,862.932 km
Eccentricity
0.05624
Inclination
99.7708°
RAAN
11.5373°
Arg. of periapsis
329.6954°
True anomaly
184.31542°
Mean anomaly
184.8216°
Eccentric anomaly
184.56511°
Mean motion
3.11291 °/min
Orbital period
115.65 mins
BSTAR
0.00037251
Loading maneuver chart data...
Computing Atmospheric mass density...
Loading historical data...
Loading historical data...
Loading historical data...
Loading historical data...
Loading historical data...
Loading historical data...
Loading historical data...

Documentation

Showing up to 5 results
|